Location: Mahannah Oil Field
(37.4664°N, 96.6003°W)
Time: 02:58:20
(UTC+00:00)

Tiros 1 despin weight - Pass Details

Date: 24 January 2021
Orbit: 593 x 642 km, 48.2° (Epoch: 02 March)

Event Time Altitude Azimuth Distance (km) Brightness Sun altitude
Rises 04:11:53 0° 291° (WNW) 2,830 - -53.2°
Reaches altitude 10° 04:14:40 10° 274° (W) 1,921 - -53.8°
Maximum altitude 04:17:49 20° 227° (SW) 1,400 - -54.3°
Drops below altitude 10° 04:20:59 10° 181° (S) 1,912 - -54.9°
Sets 04:23:45 0° 164° (SSE) 2,812 - -55.4°
